COSMOS 1867

Last updated on Mon Nov 03 2025 00:02:16 GMT+0000 (Coordinated Universal Time)

1 18187U 87060A 25306.36199909 .00000015 00000+0 43137-4 0 9995 2 18187 65.0102 303.2759 0013756 267.1050 92.8460 14.31475770 1710
UTC large
Height (km)
Speed (km/s)
/
Latitude / Longitude
Inclination (degrees)
Orbital Period (minutes)
Azimuth
Elevation
Range (km)
Doppler Factor

Next 0 passes for location: London (51.5072 / 0.1276)

Sorry there are no passes over London.